Dewpoint
60 60 61 61 61 61 61 61 61 61 61 61 61 61 61 61 61 61 61 61 61 61 61 62 62 62 62 63 63 62 60 59 52 49 48 55 68 76 76 75 75 75 77 65 59 63 62 61 60 60 60 60 59 60 54 51 52 48 47 40 41 41 43 46 45 49 53 53 54 53 54 52 55 55 54 54 54 53 58 58 61 65 66 65 66 67 67 64
60 60 60 61 61 61 61 61 61 61 61 61 61 61 61 61 61 61 61 61 61 61 61 61 62 62 62 63 64 63 59 56 54 51 50 74 76 76 75 74 74 75 76 61 62 63 60 58 58 57 57 60 61 59 48 43 47 51 34 38 39 42 42 48 48 49 51 50 52 52 53 50 51 53 52 57 56 53 58 58 60 64 66 67 67 67 65 61
59 60 60 61 61 61 61 61 61 61 61 61 61 61 61 61 61 60 60 61 61 61 62 62 62 62 63 63 63 61 59 53 49 50 60 74 76 75 74 72 72 75 67 63 61 62 61 56 55 55 56 57 60 60 50 46 42 38 39 37 36 39 42 46 45 44 47 50 49 50 52 50 49 51 52 55 55 55 58 57 60 63 64 65 65 63 61 61
59 60 60 60 61 61 61 61 61 61 61 61 61 60 60 60 60 60 60 60 61 61 62 62 62 62 62 63 63 61 59 54 43 46 56 76 76 75 73 72 72 74 65 63 58 60 53 54 54 55 52 54 45 50 40 39 38 39 35 34 41 41 43 45 46 47 47 47 48 48 51 47 50 49 54 52 55 55 59 57 61 63 64 64 63 63 59 60
59 60 60 60 60 61 61 61 60 60 60 61 60 60 60 60 60 60 61 60 61 61 62 62 62 63 63 63 61 60 55 37 44 56 69 76 77 75 72 72 73 65 63 65 65 53 52 53 51 51 51 53 44 46 41 41 43 38 38 39 39 38 40 44 43 44 45 49 47 49 50 44 49 48 50 55 62 51 55 58 62 64 65 63 63 62 60 59
59 59 60 60 60 60 60 60 60 60 60 60 60 60 60 59 60 60 61 61 61 62 62 62 63 62 63 60 61 56 44 34 46 48 73 77 77 75 73 74 76 66 64 64 61 57 51 53 52 49 48 42 43 39 41 42 43 37 39 38 40 40 41 42 44 47 48 46 47 48 42 44 48 46 49 49 49 52 55 58 62 64 65 64 63 62 59 56
59 59 59 59 59 59 59 59 60 60 60 60 59 59 59 59 60 60 61 61 61 62 63 63 63 63 61 59 57 53 43 33 49 61 75 77 77 76 76 76 77 69 66 64 59 52 53 51 50 51 50 42 47 37 36 43 43 40 39 41 42 42 41 44 46 48 49 46 45 43 45 45 48 45 46 48 49 52 54 58 61 63 66 65 63 62 60 58
59 59 59 58 58 59 59 59 59 60 60 59 59 58 58 59 59 60 60 61 62 63 63 63 63 63 58 53 50 48 48 42 54 62 77 77 74 73 73 67 65 63 65 65 60 51 48 47 41 38 37 42 36 42 38 39 39 37 39 40 42 44 44 45 47 48 49 50 51 50 48 42 43 38 45 46 48 53 55 60 63 64 64 64 64 62 60 56
58 58 58 58 58 58 59 59 59 59 59 58 58 58 58 58 59 59 60 61 63 63 64 64 63 62 57 48 23 21 37 52 54 59 73 67 62 65 62 61 62 62 64 63 53 48 47 44 38 38 36 37 34 45 40 39 37 36 38 44 44 43 44 45 44 48 47 46 54 51 48 46 43 42 44 45 48 52 54 57 58 61 60 61 63 63 60 62
58 58 58 57 57 58 58 58 59 59 58 58 58 58 58 58 59 59 60 62 63 64 64 64 63 60 55 42 30 27 55 55 56 60 62 61 61 61 60 59 59 60 60 57 50 48 44 40 39 38 38 38 35 34 42 40 34 40 42 42 43 43 45 47 45 47 47 48 51 52 48 48 46 46 41 44 49 51 51 55 58 58 58 59 60 62 60 61
57 57 57 57 57 57 58 58 58 59 59 58 57 57 57 58 58 60 60 62 63 64 64 63 63 58 40 31 27 27 54 56 58 57 60 62 60 58 57 58 58 55 55 52 49 45 43 42 39 37 36 35 34 34 46 45 38 38 39 45 51 45 44 45 45 46 50 50 52 50 54 59 49 47 44 44 47 49 50 52 53 54 55 57 58 61 63 61
57 57 57 57 57 57 57 58 58 58 59 58 57 57 57 58 60 59 61 62 64 65 64 64 60 53 42 34 25 30 57 56 58 58 59 61 58 55 55 56 57 56 51 47 46 45 43 42 40 37 33 35 32 33 35 34 36 38 38 50 49 47 43 43 45 42 51 48 52 55 59 58 53 48 44 44 46 47 48 54 52 53 54 55 57 59 60 60
57 57 57 56 56 56 57 58 58 58 58 57 57 57 58 58 59 60 61 62 62 65 64 64 61 54 46 32 25 38 45 52 56 57 57 60 55 54 54 54 54 53 50 46 44 44 43 41 40 37 35 33 32 32 34 37 35 37 41 49 53 46 44 43 45 42 45 46 54 53 45 48 54 53 44 44 44 46 47 49 50 52 54 53 56 56 56 59
56 56 56 56 56 57 57 57 58 58 58 56 57 57 57 57 58 60 61 63 63 65 63 64 60 48 41 31 29 36 39 36 52 54 53 56 53 51 50 51 51 51 49 47 46 45 44 43 41 38 36 34 32 34 30 32 33 33 44 44 43 43 43 43 42 42 43 49 51 50 46 45 52 49 45 46 44 43 47 48 48 50 52 54 54 56 57 58
56 56 56 56 56 56 57 57 57 57 56 55 56 57 57 57 58 60 61 62 64 66 64 64 54 40 30 23 23 30 77 45 46 46 48 50 49 46 47 48 48 48 47 46 45 44 42 41 39 35 31 32 30 32 29 31 48 48 49 54 48 45 45 44 49 42 41 44 45 43 46 41 51 49 46 49 51 44 48 49 47 49 50 51 53 54 54 54
56 56 56 56 56 56 57 56 56 56 55 55 55 56 56 57 58 61 62 62 61 62 57 49 46 41 26 22 24 52 39 26 18 33 43 45 47 43 42 45 45 44 45 44 43 42 41 40 36 32 29 27 26 27 26 27 40 39 46 48 39 39 43 45 44 42 40 39 42 40 38 40 45 45 44 45 45 44 47 46 46 47 50 50 52 54 55 54
56 56 55 55 55 56 56 56 56 55 55 55 55 55 56 57 60 62 62 63 59 61 48 37 34 42 31 25 26 20 25 23 18 23 35 44 44 44 41 40 41 41 41 40 40 39 38 36 34 31 28 25 24 23 22 24 40 36 42 39 39 41 39 43 42 45 36 42 38 39 37 37 39 45 43 45 46 45 45 45 45 48 49 50 52 52 52 54
56 56 55 55 55 56 56 56 56 55 55 55 56 55 55 58 61 61 58 59 51 47 43 42 40 34 23 18 17 14 15 18 18 19 31 39 43 42 42 38 38 39 39 37 37 36 35 32 31 26 24 23 23 22 20 23 26 36 32 33 38 43 38 38 39 34 33 35 38 39 37 37 36 37 44 47 46 45 46 45 45 46 48 49 51 52 52 52
56 56 55 55 55 56 56 57 55 55 54 55 55 57 60 60 57 47 40 40 43 44 34 34 35 23 12 14 10 11 7 18 20 20 24 34 40 39 38 38 36 34 34 35 32 31 31 30 28 25 21 21 18 20 18 19 20 21 25 23 25 24 40 41 29 34 35 33 39 43 39 38 38 37 47 49 45 47 46 48 52 55 54 50 51 50 50 53
56 55 55 54 55 56 56 55 55 54 54 52 46 48 49 47 44 44 41 39 35 31 28 17 27 21 15 13 11 15 18 15 10 13 11 26 35 35 33 32 32 32 30 29 31 29 28 26 26 25 19 16 17 17 17 14 15 18 14 20 21 21 22 27 33 33 35 32 28 31 30 29 31 35 48 51 48 48 47 47 55 55 59 61 56 51 51 52
55 55 54 54 54 56 55 54 54 54 54 51 48 47 29 28 22 23 27 22 22 23 19 15 9 11 13 13 16 16 13 13 12 11 12 17 27 29 28 27 26 26 27 27 25 25 25 26 24 22 20 20 19 18 17 16 17 17 19 20 18 17 16 20 22 26 29 26 29 32 30 32 34 36 49 50 48 47 46 46 55 53 56 58 59 53 56 56
55 55 54 54 54 55 55 54 53 53 54 52 53 29 29 32 33 34 33 20 23 20 15 11 7 6 7 10 13 18 19 11 11 10 10 11 19 20 19 21 20 19 23 23 24 22 20 20 22 23 22 19 18 17 18 18 16 15 17 19 17 16 17 17 16 21 22 22 28 28 27 27 29 34 48 47 46 48 46 47 48 57 56 57 59 56 59 57
55 55 54 54 54 54 54 54 52 53 51 47 32 32 32 36 35 37 36 33 28 23 12 9 10 9 7 7 7 13 13 11 4 9 9 10 12 14 10 12 13 14 15 17 17 20 18 17 18 20 20 16 12 10 10 11 12 14 14 15 14 13 11 11 16 15 18 19 25 28 20 25 35 41 48 50 49 50 51 46 45 48 55 58 56 55 56 57
55 55 55 54 55 53 53 52 53 53 53 39 32 35 37 37 36 38 35 31 23 16 12 14 12 8 8 6 7 11 11 7 6 4 11 12 10 13 10 7 8 10 9 11 14 13 15 18 19 17 17 17 15 13 11 11 10 12 12 11 8 9 11 14 12 14 16 17 15 22 28 24 36 32 39 48 49 50 48 50 49 50 50 58 58 56 56 56
55 55 55 55 53 54 52 52 50 33 26 34 34 36 36 40 41 39 34 35 30 24 17 5 12 12 11 15 17 11 12 12 7 5 8 14 11 8 9 7 5 3 6 7 8 9 11 14 16 16 17 17 17 14 13 12 10 9 8 7 7 7 8 8 11 11 11 16 12 13 19 21 30 30 29 52 51 47 51 51 50 51 52 52 57 57 59 62
55 55 54 54 53 52 51 51 40 38 35 37 37 37 35 38 41 40 37 27 11 6 11 11 8 11 12 14 16 15 10 8 10 7 4 13 19 9 7 8 8 3 1 3 2 4 4 6 10 12 14 15 16 13 12 11 9 8 6 5 3 3 5 8 10 10 15 20 18 13 17 18 23 25 33 46 51 53 53 52 53 55 56 48 53 58 59 61
55 55 54 54 53 51 41 39 43 44 40 38 39 38 36 37 51 41 35 20 10 7 5 19 14 15 14 12 15 15 7 5 5 7 5 15 14 12 6 7 10 7 1 -1 1 -2 3 3 3 5 10 14 13 12 10 11 9 7 6 4 2 1 2 5 6 10 16 15 11 11 12 17 15 21 33 40 38 44 54 54 53 54 54 48 49 58 60 59
54 54 53 54 52 51 43 42 45 39 39 39 39 37 37 42 46 43 29 2 -1 8 9 19 18 21 19 17 16 13 8 8 5 6 5 12 16 11 7 5 6 6 4 1 -1 -0 1 1 -0 2 8 10 11 10 11 9 6 4 2 2 1 2 5 6 7 7 9 10 13 9 10 17 21 28 28 32 31 36 42 53 54 56 53 51 51 51 57 62
54 53 53 52 52 51 51 48 47 43 40 40 39 38 36 42 37 36 25 14 12 6 18 16 21 18 14 18 17 15 13 7 5 4 7 10 14 10 6 7 5 5 7 5 2 2 1 4 5 4 5 5 8 9 7 5 2 2 -0 0 1 7 6 5 6 7 8 10 11 9 3 10 15 21 22 34 30 31 33 41 50 55 54 54 53 53 50 58
54 53 52 52 49 41 55 50 49 44 42 41 39 39 38 36 36 25 11 4 6 5 14 17 17 15 15 14 12 13 13 11 8 8 8 9 12 11 9 10 10 9 5 4 5 5 5 13 18 9 8 6 7 6 4 2 2 3 3 3 2 2 3 2 3 9 9 13 15 6 4 5 11 17 16 25 23 24 24 38 55 57 55 55 55 53 52 56
53 52 51 51 43 33 35 33 38 40 42 45 39 37 36 38 28 16 6 4 5 3 12 14 14 13 13 11 9 10 11 9 10 8 11 11 10 11 10 7 10 10 8 5 2 4 5 4 2 7 10 9 7 5 4 3 2 2 2 -1 -1 3 6 10 10 13 9 9 8 4 5 9 11 18 20 25 21 17 20 41 47 52 55 54 56 53 53 57
52 52 51 50 46 45 34 34 31 38 46 43 40 36 33 22 22 13 9 9 4 4 3 7 9 10 10 10 7 7 9 9 8 7 8 10 11 10 10 7 7 7 4 3 2 4 3 4 4 2 15 8 8 5 2 -0 -1 -2 1 5 1 8 9 7 12 8 7 9 9 6 9 11 14 20 16 14 16 18 32 42 32 43 57 57 56 56 58 61
52 51 51 49 48 46 43 38 38 45 45 40 38 35 31 19 16 13 8 9 7 9 5 8 7 9 10 8 6 6 10 9 8 5 8 8 9 7 8 7 4 4 2 1 0 -1 -0 4 5 5 3 9 7 5 2 -1 -3 -2 1 4 7 8 7 9 7 6 4 2 4 6 11 11 14 14 19 13 28 30 34 40 41 41 44 48 57 59 56 58
51 50 49 46 40 43 43 45 44 43 41 42 38 30 29 21 14 30 10 7 7 8 9 10 7 10 11 7 7 6 7 10 7 6 5 6 5 6 5 7 6 2 3 1 -0 -2 0 1 -0 2 2 3 4 6 5 2 -3 -5 -2 -0 6 12 1 7 6 7 3 9 2 4 7 20 14 21 13 28 28 32 32 35 43 43 46 50 57 59 57 61
51 50 50 49 46 43 41 41 43 44 44 37 31 27 20 21 20 14 13 10 7 6 7 9 9 9 10 9 8 6 5 7 8 6 5 4 3 5 4 4 8 4 1 1 2 3 -1 1 4 3 2 2 3 6 8 5 2 -1 -2 -3 2 5 7 2 1 -0 -1 -1 2 8 6 11 17 20 24 24 24 31 35 39 48 50 49 51 55 58 56 60
50 44 40 40 44 48 49 44 44 44 42 34 26 24 20 19 16 15 13 12 9 7 6 6 7 7 8 8 9 6 9 9 7 7 5 4 3 3 4 2 4 6 2 0 1 1 3 1 0 0 4 5 3 5 7 7 4 -0 -4 -3 -4 -3 -2 6 4 0 2 2 7 1 1 3 11 28 27 28 28 29 33 42 50 56 55 55 57 54 54 57
41 42 38 42 37 39 47 45 44 44 40 34 27 22 20 18 16 14 23 11 10 12 11 5 7 8 7 5 5 5 5 7 5 6 8 4 2 2 2 4 4 4 6 5 0 -0 2 2 3 4 0 3 4 4 4 3 3 1 -3 -6 -2 -3 -1 7 2 10 3 2 11 5 7 11 15 20 25 24 27 31 39 46 53 56 59 58 57 57 65 64
44 43 45 42 41 41 42 43 43 42 36 28 26 36 22 16 16 15 15 13 12 13 9 7 7 8 6 4 2 3 5 5 5 7 6 3 2 3 2 3 4 5 5 6 6 5 3 1 2 3 2 1 2 4 2 2 0 -1 -3 -4 -5 4 5 8 3 5 3 -0 7 3 8 11 23 26 21 26 35 38 44 49 51 56 61 63 63 64 65 66
46 46 42 43 34 40 39 43 42 41 34 26 22 28 25 23 19 15 14 13 12 13 12 11 9 7 6 3 4 3 7 6 7 6 7 5 3 5 4 4 4 4 6 5 5 6 4 3 5 5 2 1 1 1 3 -1 -1 -1 -1 -3 -1 2 4 9 6 14 18 9 3 13 9 31 24 35 42 39 42 45 44 47 50 57 62 63 65 65 65 65
46 40 36 38 37 36 45 40 37 38 32 23 21 19 20 18 18 18 16 12 11 12 14 13 11 10 9 7 5 5 7 8 8 7 6 8 4 8 6 7 6 6 7 7 6 6 6 16 6 3 2 1 1 2 0 1 -3 -4 -4 -5 -3 -1 -0 0 1 4 6 12 15 15 11 38 42 42 47 49 50 51 49 52 61 63 64 64 65 65 66 66
38 35 38 44 39 41 40 36 35 31 31 28 23 18 16 15 14 14 14 13 14 15 13 11 8 8 13 11 5 6 9 8 9 8 7 6 5 10 7 5 5 5 6 7 8 8 13 9 9 4 1 2 2 1 -0 -3 -5 -5 -4 -2 -6 -6 -0 4 6 -0 2 3 14 9 34 47 50 49 49 50 52 55 57 59 62 64 65 65 65 65 65 65
36 31 34 41 39 39 33 31 28 30 26 25 22 19 19 34 14 13 12 13 15 15 14 12 12 12 13 14 9 8 12 11 8 8 8 6 7 6 5 4 4 4 5 12 8 7 13 8 7 5 3 2 2 -1 0 -3 -5 -5 -5 -4 -3 -6 -3 2 11 9 4 5 3 3 19 46 53 52 54 54 53 56 59 60 63 64 65 66 65 65 65 65
38 32 41 41 38 35 30 30 31 28 26 24 22 20 18 16 16 15 13 13 14 15 15 13 12 11 13 14 12 9 10 10 10 9 8 5 6 1 7 7 8 7 7 6 5 7 43 8 7 7 8 6 5 -0 4 3 4 1 -1 1 -3 -5 -6 -3 1 8 8 9 7 11 36 48 53 55 55 56 55 56 61 59 64 64 64 65 66 65 66 65
39 37 34 38 39 34 30 27 27 25 22 22 22 20 19 16 13 14 14 13 14 14 14 13 12 10 12 13 13 13 13 15 12 11 10 10 7 8 9 9 11 8 5 5 12 7 8 18 13 13 15 14 8 10 4 3 3 -0 -3 -0 -0 -1 -1 -2 1 8 8 4 3 6 34 46 55 55 55 55 55 57 60 61 62 63 64 65 65 66 66 66
37 30 30 34 38 33 26 28 28 26 25 23 21 20 19 17 15 13 13 14 15 14 13 12 11 10 12 13 12 11 12 11 15 11 11 10 8 7 9 10 10 8 6 37 55 13 6 8 16 11 14 13 8 12 13 10 6 2 2 -2 1 -0 4 5 3 12 12 24 13 11 36 50 53 54 53 54 56 58 57 60 62 63 65 64 64 65 67 67
34 27 19 21 32 30 29 28 27 27 27 31 27 21 18 16 15 13 14 16 16 14 12 12 10 9 10 10 12 12 13 13 13 14 11 10 10 9 9 10 11 11 41 53 42 21 12 8 13 18 17 14 22 23 14 18 14 6 2 2 -0 1 2 7 7 10 8 21 24 37 43 47 47 47 52 51 55 55 59 60 62 62 63 64 65 65 65 67
40 34 31 21 25 28 25 21 20 23 26 30 32 27 20 18 17 15 16 16 15 13 12 12 11 10 10 9 10 9 9 10 13 14 13 12 11 9 12 12 12 27 56 32 34 17 24 13 12 11 13 12 10 14 13 17 14 11 10 4 4 9 6 8 6 9 33 13 18 41 47 39 43 46 50 53 55 57 59 61 61 63 64 64 64 65 65 67
34 30 27 33 34 27 24 22 17 16 20 27 30 28 25 23 20 18 16 16 15 13 12 15 12 10 8 8 12 12 13 14 14 13 11 12 13 11 11 12 12 47 39 15 15 18 15 12 11 11 9 7 8 10 10 11 11 11 11 9 11 13 13 14 14 14 12 14 24 49 48 42 43 45 47 53 56 57 56 59 62 63 63 64 64 64 65 67
34 31 30 32 31 32 31 32 28 19 17 19 25 26 25 24 22 18 16 15 15 15 13 15 13 11 10 10 11 10 17 15 13 14 15 13 12 14 13 13 14 25 22 19 17 31 26 13 13 10 11 8 8 9 8 4 7 7 8 7 5 8 12 13 12 11 12 22 43 45 51 47 47 49 52 54 55 55 55 57 61 63 63 64 63 65 65 66
39 36 37 40 39 37 36 34 33 31 27 28 23 21 21 22 24 24 19 16 15 15 13 13 13 13 11 12 16 14 15 16 15 16 13 15 13 19 19 19 17 19 19 20 19 24 20 19 24 11 14 9 7 8 3 2 6 8 6 10 10 10 11 13 14 14 19 27 39 35 47 49 54 57 60 62 62 59 61 61 63 65 63 63 65 64 65 65
34 34 37 37 36 37 38 35 34 35 30 30 28 24 24 21 22 24 23 18 16 17 16 13 13 14 14 13 14 13 12 13 14 13 16 17 16 17 20 18 19 22 20 18 17 21 21 17 15 16 15 14 9 5 4 4 5 9 11 12 15 13 16 16 19 19 23 29 38 41 44 45 52 56 59 61 59 59 59 61 62 64 63 64 63 63 65 66
36 34 32 30 31 37 32 33 32 31 31 32 29 28 28 26 25 24 24 23 20 16 16 15 13 12 14 15 15 13 12 11 12 14 15 11 12 15 15 17 19 24 23 22 26 19 22 19 18 13 14 16 14 6 4 8 13 12 12 15 18 18 21 19 20 21 31 34 36 35 44 46 53 55 56 56 56 58 59 60 61 62 63 62 60 63 64 65